User: anonymous   Login
Location: Brede
(50.9167°N, 0.6000°E)
Time: 13:39:09
(UTC+00:00)
Language:

ARIANE 5 R/B - Orbit

View from above orbital plane
View from above orbital plane
View from above satellite
View from above satellite

Ground track
Ground track

The orbit data is extracted from the following two-line orbital elements,

1 27387U 02009B   20294.69241866 -.00000012 +00000-0 +11096-4 0  9992
2 27387 098.6240 248.3064 0033471 109.0829 251.3986 14.36002267976841
Epoch (UTC): 20 October 2020 16:37:04
Eccentricity: 0.0033471
inclination: 98.6240°
perigee height: 748 km
apogee height: 795 km
right ascension of ascending node: 248.3064°
argument of perigee: 109.0829°
revolutions per day: 14.36002267
mean anomaly at epoch: 251.3986°
orbit number at epoch: 97684

The dashed part of the orbit path shows where the satellite is in the earth's shadow,  

DLR